Orbital Elements at Epoch 2459000.5 (2020-May-31.0) TDB
Reference: JPL 31 (heliocentric ecliptic J2000)
Element | Value | Uncertainty (1-sigma) | Units |
e | .03030854222300219 | 3.0085e-08 | |
a | 2.866687276162554 | 1.2345e-08 | au |
q | 2.779802163812839 | 8.4602e-08 | au |
i | 2.738653273755588 | 4.225e-06 | deg |
node | 48.57409644349097 | 8.0666e-05 | deg |
peri | 206.2949482837586 | 0.00011976 | deg |
M | 166.9598998804206 | 8.9832e-05 | deg |
tp | 2458178.297903288501 (2018-Feb-28.79790329) | 0.00044198 | TDB |
period | 1772.837400047165 4.85 | 1.1452e-05 3.135e-08 | d yr |
n | .2030643080918885 | 1.3117e-09 | deg/d |
Q | 2.953572388512271 | 1.2719e-08 | au |
|
| | Orbit Determination Parameters
Additional Information
|